| time (UTC) | temp F | wind direction | speed MPH | gust MPH | rain 1hr in | rain 24hr in | rain mn in | humidity % | barometer mb |
| 20260904052031 | 83 | 186 | 5.0 | 11.0 | 0.00 | 0.00 | 0.00 | 16 | 1007.4 |
| 20260904051713 | 83 | 161 | 6.0 | 11.0 | 0.00 | 0.00 | 0.00 | 16 | 1007.4 |
| 20260904050755 | 83 | 164 | 6.0 | 11.0 | 0.00 | 0.00 | 0.00 | 15 | 1007.5 |
| 20260904050435 | 83 | 159 | 6.0 | 11.0 | 0.00 | 0.00 | 0.00 | 15 | 1007.5 |
| 20260904050111 | 83 | 184 | 6.0 | 11.0 | 0.00 | 0.00 | 0.00 | 16 | 1007.4 |
| 20260904045747 | 83 | 167 | 5.0 | 11.0 | 0.00 | 0.00 | 0.00 | 16 | 1007.3 |
| 20260904045422 | 83 | 178 | 3.0 | 9.0 | 0.00 | 0.00 | 0.00 | 16 | 1007.4 |
| 20260904044759 | 84 | 174 | 2.0 | 5.0 | 0.00 | 0.00 | 0.00 | 16 | 1007.4 |
| 20260904044443 | 84 | 182 | 2.0 | 4.0 | 0.00 | 0.00 | 0.00 | 16 | 1007.4 |
| 20260904043524 | 85 | 202 | 2.0 | 6.0 | 0.00 | 0.00 | 0.00 | 16 | 1007.4 |
| 20260904042902 | 85 | 163 | 2.0 | 6.0 | 0.00 | 0.00 | 0.00 | 16 | 1007.4 |
| 20260904042537 | 85 | 194 | 3.0 | 9.0 | 0.00 | 0.00 | 0.00 | 16 | 1007.4 |
| 20260904041916 | 86 | 209 | 4.0 | 9.0 | 0.00 | 0.00 | 0.00 | 16 | 1007.3 |
| 20260904041555 | 86 | 203 | 4.0 | 11.0 | 0.00 | 0.00 | 0.00 | 15 | 1007.3 |
| 20260904040337 | 86 | 188 | 5.0 | 13.0 | 0.00 | 0.00 | 0.00 | 15 | 1007.3 |
| 20260904040022 | 86 | 184 | 5.0 | 13.0 | 0.00 | 0.00 | 0.00 | 15 | 1007.3 |
| 20260904035700 | 86 | 200 | 5.0 | 13.0 | 0.00 | 0.00 | 0.00 | 15 | 1007.3 |
| 20260904035341 | 86 | 206 | 6.0 | 13.0 | 0.00 | 0.00 | 0.00 | 15 | 1007.3 |
| 20260904035019 | 86 | 200 | 5.0 | 13.0 | 0.00 | 0.00 | 0.00 | 15 | 1007.3 |
| 20260904034656 | 86 | 190 | 4.0 | 11.0 | 0.00 | 0.00 | 0.00 | 15 | 1007.3 |
| 20260904034338 | 86 | 202 | 5.0 | 11.0 | 0.00 | 0.00 | 0.00 | 15 | 1007.3 |
| 20260904034023 | 86 | 222 | 5.0 | 11.0 | 0.00 | 0.00 | 0.00 | 15 | 1007.3 |
| 20260904033657 | 86 | 231 | 5.0 | 11.0 | 0.00 | 0.00 | 0.00 | 15 | 1007.2 |
| 20260904033335 | 86 | 234 | 4.0 | 11.0 | 0.00 | 0.00 | 0.00 | 15 | 1007.1 |
| 20260904033013 | 86 | 199 | 4.0 | 10.0 | 0.00 | 0.00 | 0.00 | 15 | 1007.1 |
| 20260904032347 | 86 | 244 | 5.0 | 10.0 | 0.00 | 0.00 | 0.00 | 14 | 1007.0 |
| 20260904032026 | 87 | 209 | 4.0 | 10.0 | 0.00 | 0.00 | 0.00 | 14 | 1006.9 |
| 20260904031706 | 87 | 256 | 3.0 | 9.0 | 0.00 | 0.00 | 0.00 | 14 | 1006.9 |
| 20260904031341 | 87 | 252 | 3.0 | 10.0 | 0.00 | 0.00 | 0.00 | 14 | 1006.9 |
| 20260904030719 | 87 | 197 | 4.0 | 10.0 | 0.00 | 0.00 | 0.00 | 14 | 1006.9 |
| 20260904030355 | 87 | 229 | 4.0 | 13.0 | 0.00 | 0.00 | 0.00 | 14 | 1006.8 |
| 20260904030033 | 87 | 223 | 4.0 | 13.0 | 0.00 | 0.00 | 0.00 | 14 | 1006.8 |
| 20260904025714 | 87 | 242 | 4.0 | 13.0 | 0.00 | 0.00 | 0.00 | 15 | 1006.8 |
| 20260904025351 | 88 | 253 | 5.0 | 13.0 | 0.00 | 0.00 | 0.00 | 14 | 1006.8 |
| 20260904024426 | 88 | 247 | 6.0 | 16.0 | 0.00 | 0.00 | 0.00 | 14 | 1006.7 |
| 20260904024103 | 88 | 251 | 6.0 | 16.0 | 0.00 | 0.00 | 0.00 | 14 | 1006.7 |
| 20260904023740 | 88 | 236 | 7.0 | 16.0 | 0.00 | 0.00 | 0.00 | 14 | 1006.6 |
| 20260904023416 | 88 | 249 | 7.0 | 16.0 | 0.00 | 0.00 | 0.00 | 14 | 1006.6 |
| 20260904023057 | 88 | 246 | 7.0 | 16.0 | 0.00 | 0.00 | 0.00 | 13 | 1006.6 |
| 20260904022732 | 88 | 229 | 6.0 | 16.0 | 0.00 | 0.00 | 0.00 | 14 | 1006.6 |
| 20260904021805 | 89 | 250 | 7.0 | 14.0 | 0.00 | 0.00 | 0.00 | 14 | 1006.7 |
| 20260904021446 | 89 | 266 | 7.0 | 14.0 | 0.00 | 0.00 | 0.00 | 13 | 1006.7 |
| 20260904021128 | 89 | 250 | 6.0 | 14.0 | 0.00 | 0.00 | 0.00 | 13 | 1006.7 |
| 20260904020803 | 89 | 259 | 5.0 | 14.0 | 0.00 | 0.00 | 0.00 | 13 | 1006.6 |
| 20260904020445 | 90 | 223 | 5.0 | 10.0 | 0.00 | 0.00 | 0.00 | 13 | 1006.7 |
| 20260904020120 | 90 | 234 | 5.0 | 14.0 | 0.00 | 0.00 | 0.00 | 13 | 1006.6 |
| 20260904015804 | 90 | 237 | 5.0 | 14.0 | 0.00 | 0.00 | 0.00 | 13 | 1006.7 |
| 20260904015441 | 90 | 242 | 6.0 | 14.0 | 0.00 | 0.00 | 0.00 | 13 | 1006.7 |
| 20260904015121 | 90 | 225 | 7.0 | 14.0 | 0.00 | 0.00 | 0.00 | 13 | 1006.7 |
| 20260904014805 | 90 | 275 | 6.0 | 14.0 | 0.00 | 0.00 | 0.00 | 13 | 1006.6 |
| 20260904014441 | 91 | 232 | 5.0 | 14.0 | 0.00 | 0.00 | 0.00 | 13 | 1006.6 |
| 20260904014122 | 91 | 246 | 5.0 | 12.0 | 0.00 | 0.00 | 0.00 | 13 | 1006.6 |
| 20260904013804 | 91 | 242 | 5.0 | 12.0 | 0.00 | 0.00 | 0.00 | 13 | 1006.6 |
| 20260904013446 | 91 | 211 | 5.0 | 13.0 | 0.00 | 0.00 | 0.00 | 13 | 1006.7 |
| 20260904012820 | 91 | 239 | 6.0 | 13.0 | 0.00 | 0.00 | 0.00 | 13 | 1006.6 |
| 20260904012455 | 91 | 204 | 7.0 | 17.0 | 0.00 | 0.00 | 0.00 | 12 | 1006.6 |
| 20260904012137 | 92 | 255 | 7.0 | 17.0 | 0.00 | 0.00 | 0.00 | 12 | 1006.6 |
| 20260904011818 | 92 | 241 | 7.0 | 17.0 | 0.00 | 0.00 | 0.00 | 12 | 1006.6 |
| 20260904011453 | 92 | 208 | 7.0 | 17.0 | 0.00 | 0.00 | 0.00 | 12 | 1006.7 |
| 20260904011127 | 92 | 199 | 7.0 | 17.0 | 0.00 | 0.00 | 0.00 | 12 | 1006.7 |
| 20260904010813 | 92 | 234 | 7.0 | 17.0 | 0.00 | 0.00 | 0.00 | 12 | 1006.6 |
| 20260904010448 | 92 | 250 | 7.0 | 20.0 | 0.00 | 0.00 | 0.00 | 12 | 1006.7 |
| 20260904010126 | 93 | 205 | 7.0 | 20.0 | 0.00 | 0.00 | 0.00 | 12 | 1006.7 |
| 20260904005209 | 93 | 181 | 7.0 | 20.0 | 0.00 | 0.00 | 0.00 | 12 | 1006.6 |
| 20260904004848 | 93 | 231 | 7.0 | 20.0 | 0.00 | 0.00 | 0.00 | 11 | 1006.7 |
| 20260904004526 | 93 | 247 | 6.0 | 16.0 | 0.00 | 0.00 | 0.00 | 11 | 1006.7 |
| 20260904004206 | 93 | 211 | 7.0 | 16.0 | 0.00 | 0.00 | 0.00 | 12 | 1006.7 |
| 20260904003545 | 93 | 184 | 8.0 | 16.0 | 0.00 | 0.00 | 0.00 | 12 | 1006.8 |
| 20260904003222 | 93 | 196 | 9.0 | 21.0 | 0.00 | 0.00 | 0.00 | 11 | 1006.8 |
| 20260904002858 | 94 | 205 | 9.0 | 21.0 | 0.00 | 0.00 | 0.00 | 11 | 1006.7 |
| 20260904002542 | 94 | 189 | 9.0 | 21.0 | 0.00 | 0.00 | 0.00 | 11 | 1006.8 |
| 20260904002223 | 94 | 192 | 9.0 | 23.0 | 0.00 | 0.00 | 0.00 | 11 | 1006.8 |
| 20260904001906 | 94 | 196 | 9.0 | 23.0 | 0.00 | 0.00 | 0.00 | 11 | 1006.8 |
| 20260904001540 | 94 | 190 | 10.0 | 23.0 | 0.00 | 0.00 | 0.00 | 12 | 1006.9 |
| 20260904001218 | 94 | 186 | 10.0 | 23.0 | 0.00 | 0.00 | 0.00 | 11 | 1006.8 |
| 20260904000903 | 94 | 172 | 10.0 | 23.0 | 0.00 | 0.00 | 0.00 | 12 | 1006.9 |
| 20260904000240 | 94 | 169 | 10.0 | 20.0 | 0.00 | 0.00 | 0.00 | 12 | 1007.0 |
| 20260903235318 | 94 | 224 | 10.0 | 20.0 | 0.00 | 0.00 | 0.00 | 12 | 1007.1 |
| 20260903235000 | 94 | 254 | 9.0 | 19.0 | 0.00 | 0.00 | 0.00 | 12 | 1007.1 |
| 20260903234640 | 94 | 207 | 9.0 | 19.0 | 0.00 | 0.00 | 0.00 | 12 | 1007.0 |
| 20260903234320 | 94 | 205 | 10.0 | 19.0 | 0.00 | 0.00 | 0.00 | 12 | 1007.1 |
| 20260903234005 | 95 | 219 | 9.0 | 19.0 | 0.00 | 0.00 | 0.00 | 12 | 1007.2 |
| 20260903233646 | 95 | 207 | 10.0 | 19.0 | 0.00 | 0.00 | 0.00 | 12 | 1007.1 |
| 20260903233024 | 95 | 189 | 10.0 | 19.0 | 0.00 | 0.00 | 0.00 | 11 | 1007.2 |
| 20260903232708 | 95 | 192 | 10.0 | 19.0 | 0.00 | 0.00 | 0.00 | 12 | 1007.2 |
| 20260903232347 | 95 | 206 | 10.0 | 20.0 | 0.00 | 0.00 | 0.00 | 11 | 1007.1 |
| 20260903232022 | 95 | 223 | 9.0 | 20.0 | 0.00 | 0.00 | 0.00 | 12 | 1007.3 |
| 20260903231702 | 95 | 216 | 9.0 | 20.0 | 0.00 | 0.00 | 0.00 | 11 | 1007.2 |
| 20260903231334 | 96 | 211 | 8.0 | 20.0 | 0.00 | 0.00 | 0.00 | 11 | 1007.2 |
| 20260903231013 | 96 | 213 | 8.0 | 20.0 | 0.00 | 0.00 | 0.00 | 11 | 1007.4 |
| 20260903230346 | 96 | 240 | 9.0 | 23.0 | 0.00 | 0.00 | 0.00 | 11 | 1007.3 |
| 20260903230031 | 96 | 200 | 10.0 | 23.0 | 0.00 | 0.00 | 0.00 | 11 | 1007.4 |
| 20260903225411 | 96 | 279 | 11.0 | 23.0 | 0.00 | 0.00 | 0.00 | 11 | 1007.4 |
| 20260903225054 | 96 | 246 | 11.0 | 23.0 | 0.00 | 0.00 | 0.00 | 11 | 1007.5 |
| 20260903224733 | 96 | 239 | 10.0 | 23.0 | 0.00 | 0.00 | 0.00 | 11 | 1007.5 |
| 20260903224409 | 96 | 194 | 9.0 | 19.0 | 0.00 | 0.00 | 0.00 | 11 | 1007.6 |
| 20260903224048 | 97 | 224 | 9.0 | 19.0 | 0.00 | 0.00 | 0.00 | 10 | 1007.6 |
| 20260903223730 | 97 | 189 | 8.0 | 19.0 | 0.00 | 0.00 | 0.00 | 11 | 1007.7 |
| 20260903223405 | 96 | 169 | 7.0 | 19.0 | 0.00 | 0.00 | 0.00 | 11 | 1007.6 |
| 20260903223045 | 97 | 204 | 7.0 | 19.0 | 0.00 | 0.00 | 0.00 | 11 | 1007.7 |
| 20260903222725 | 96 | 153 | 7.0 | 19.0 | 0.00 | 0.00 | 0.00 | 11 | 1007.8 |
| 20260903222104 | 96 | 206 | 9.0 | 19.0 | 0.00 | 0.00 | 0.00 | 11 | 1007.8 |
| 20260903221749 | 96 | 225 | 8.0 | 18.0 | 0.00 | 0.00 | 0.00 | 11 | 1007.9 |
| 20260903221432 | 97 | 203 | 8.0 | 18.0 | 0.00 | 0.00 | 0.00 | 12 | 1008.0 |
| 20260903221112 | 96 | 165 | 9.0 | 18.0 | 0.00 | 0.00 | 0.00 | 11 | 1007.8 |
| 20260903220756 | 96 | 222 | 10.0 | 18.0 | 0.00 | 0.00 | 0.00 | 11 | 1008.0 |
| 20260903220440 | 96 | 222 | 9.0 | 18.0 | 0.00 | 0.00 | 0.00 | 11 | 1008.0 |
| 20260903220117 | 96 | 187 | 9.0 | 18.0 | 0.00 | 0.00 | 0.00 | 11 | 1008.0 |
| 20260903215756 | 96 | 232 | 9.0 | 18.0 | 0.00 | 0.00 | 0.00 | 11 | 1008.1 |
| 20260903215438 | 96 | 171 | 10.0 | 18.0 | 0.00 | 0.00 | 0.00 | 11 | 1008.1 |
| 20260903215113 | 97 | 166 | 10.0 | 19.0 | 0.00 | 0.00 | 0.00 | 11 | 1008.1 |
| 20260903214756 | 97 | 215 | 10.0 | 19.0 | 0.00 | 0.00 | 0.00 | 11 | 1008.1 |
| 20260903214431 | 96 | 154 | 10.0 | 19.0 | 0.00 | 0.00 | 0.00 | 11 | 1008.1 |
| 20260903214110 | 96 | 161 | 10.0 | 21.0 | 0.00 | 0.00 | 0.00 | 11 | 1008.2 |
| 20260903213752 | 96 | 206 | 10.0 | 21.0 | 0.00 | 0.00 | 0.00 | 11 | 1008.2 |
| 20260903213429 | 96 | 219 | 10.0 | 21.0 | 0.00 | 0.00 | 0.00 | 12 | 1008.3 |
| 20260903213113 | 96 | 194 | 9.0 | 22.0 | 0.00 | 0.00 | 0.00 | 12 | 1008.3 |
| 20260903212752 | 96 | 207 | 9.0 | 22.0 | 0.00 | 0.00 | 0.00 | 12 | 1008.3 |
| 20260903212434 | 96 | 157 | 9.0 | 22.0 | 0.00 | 0.00 | 0.00 | 12 | 1008.5 |
| 20260903212109 | 96 | 205 | 10.0 | 25.0 | 0.00 | 0.00 | 0.00 | 11 | 1008.4 |
| 20260903211447 | 95 | 198 | 9.0 | 25.0 | 0.00 | 0.00 | 0.00 | 12 | 1008.3 |
| 20260903210523 | 95 | 182 | 11.0 | 25.0 | 0.00 | 0.00 | 0.00 | 13 | 1008.6 |
| 20260903210207 | 95 | 221 | 10.0 | 24.0 | 0.00 | 0.00 | 0.00 | 13 | 1008.6 |
| 20260903205845 | 95 | 186 | 11.0 | 24.0 | 0.00 | 0.00 | 0.00 | 12 | 1008.7 |
| 20260903205528 | 95 | 186 | 11.0 | 31.0 | 0.00 | 0.00 | 0.00 | 12 | 1008.7 |
| 20260903205210 | 95 | 178 | 10.0 | 31.0 | 0.00 | 0.00 | 0.00 | 12 | 1008.8 |
| 20260903204854 | 95 | 108 | 11.0 | 31.0 | 0.00 | 0.00 | 0.00 | 13 | 1008.7 |
| 20260903203937 | 95 | 246 | 13.0 | 31.0 | 0.00 | 0.00 | 0.00 | 12 | 1008.8 |
| 20260903203616 | 95 | 172 | 13.0 | 31.0 | 0.00 | 0.00 | 0.00 | 12 | 1008.8 |
| 20260903203259 | 95 | 195 | 13.0 | 26.0 | 0.00 | 0.00 | 0.00 | 13 | 1008.7 |
| 20260903202634 | 95 | 208 | 10.0 | 23.0 | 0.00 | 0.00 | 0.00 | 13 | 1008.8 |
| 20260903202318 | 95 | 155 | 10.0 | 23.0 | 0.00 | 0.00 | 0.00 | 13 | 1008.7 |
| 20260903201954 | 95 | 214 | 11.0 | 23.0 | 0.00 | 0.00 | 0.00 | 12 | 1008.9 |
| 20260903201335 | 94 | 147 | 11.0 | 23.0 | 0.00 | 0.00 | 0.00 | 12 | 1008.9 |
| 20260903201011 | 94 | 144 | 11.0 | 22.0 | 0.00 | 0.00 | 0.00 | 13 | 1008.9 |
| 20260903200647 | 94 | 153 | 10.0 | 22.0 | 0.00 | 0.00 | 0.00 | 13 | 1009.1 |
| 20260903200331 | 94 | 153 | 11.0 | 22.0 | 0.00 | 0.00 | 0.00 | 12 | 1009.2 |
| 20260903200015 | 94 | 209 | 11.0 | 22.0 | 0.00 | 0.00 | 0.00 | 13 | 1009.1 |
| 20260903195658 | 94 | 202 | 12.0 | 22.0 | 0.00 | 0.00 | 0.00 | 13 | 1009.1 |
| 20260903195336 | 93 | 203 | 12.0 | 22.0 | 0.00 | 0.00 | 0.00 | 13 | 1009.2 |
| 20260903195018 | 94 | 207 | 11.0 | 31.0 | 0.00 | 0.00 | 0.00 | 13 | 1009.3 |
| 20260903194657 | 94 | 169 | 10.0 | 31.0 | 0.00 | 0.00 | 0.00 | 13 | 1009.4 |
| 20260903194331 | 94 | 162 | 10.0 | 31.0 | 0.00 | 0.00 | 0.00 | 13 | 1009.4 |
| 20260903194010 | 93 | 163 | 11.0 | 31.0 | 0.00 | 0.00 | 0.00 | 13 | 1009.5 |
| 20260903193646 | 93 | 173 | 11.0 | 31.0 | 0.00 | 0.00 | 0.00 | 14 | 1009.7 |
| 20260903193324 | 93 | 128 | 10.0 | 31.0 | 0.00 | 0.00 | 0.00 | 13 | 1009.6 |
| 20260903192959 | 93 | 149 | 9.0 | 21.0 | 0.00 | 0.00 | 0.00 | 13 | 1009.6 |
| 20260903192341 | 93 | 168 | 11.0 | 21.0 | 0.00 | 0.00 | 0.00 | 13 | 1009.8 |
| 20260903192016 | 93 | 175 | 11.0 | 19.0 | 0.00 | 0.00 | 0.00 | 14 | 1009.7 |
| 20260903191052 | 93 | 148 | 9.0 | 16.0 | 0.00 | 0.00 | 0.00 | 13 | 1009.7 |
| 20260903190727 | 92 | 168 | 9.0 | 16.0 | 0.00 | 0.00 | 0.00 | 13 | 1009.8 |
| 20260903190406 | 92 | 165 | 8.0 | 16.0 | 0.00 | 0.00 | 0.00 | 13 | 1009.8 |
| 20260903190052 | 92 | 205 | 8.0 | 16.0 | 0.00 | 0.00 | 0.00 | 13 | 1010.0 |
| 20260903185733 | 92 | 201 | 8.0 | 19.0 | 0.00 | 0.00 | 0.00 | 13 | 1010.0 |
| 20260903185408 | 92 | 211 | 8.0 | 19.0 | 0.00 | 0.00 | 0.00 | 14 | 1010.1 |
| 20260903185045 | 92 | 225 | 8.0 | 19.0 | 0.00 | 0.00 | 0.00 | 13 | 1010.0 |
| 20260903184727 | 92 | 315 | 10.0 | 23.0 | 0.00 | 0.00 | 0.00 | 13 | 1010.2 |
| 20260903184409 | 92 | 166 | 12.0 | 23.0 | 0.00 | 0.00 | 0.00 | 13 | 1010.4 |
| 20260903184044 | 92 | 159 | 12.0 | 23.0 | 0.00 | 0.00 | 0.00 | 13 | 1010.4 |
| 20260903183720 | 92 | 145 | 11.0 | 23.0 | 0.00 | 0.00 | 0.00 | 13 | 1010.4 |
| 20260903183404 | 92 | 198 | 11.0 | 23.0 | 0.00 | 0.00 | 0.00 | 13 | 1010.4 |
| 20260903183048 | 92 | 130 | 10.0 | 23.0 | 0.00 | 0.00 | 0.00 | 13 | 1010.4 |
| 20260903182721 | 91 | 184 | 9.0 | 18.0 | 0.00 | 0.00 | 0.00 | 14 | 1010.3 |
| 20260903182359 | 91 | 159 | 8.0 | 17.0 | 0.00 | 0.00 | 0.00 | 14 | 1010.5 |
| 20260903181731 | 91 | 156 | 8.0 | 17.0 | 0.00 | 0.00 | 0.00 | 15 | 1010.5 |
| 20260903181412 | 91 | 177 | 9.0 | 19.0 | 0.00 | 0.00 | 0.00 | 14 | 1010.5 |
| 20260903181053 | 91 | 147 | 9.0 | 19.0 | 0.00 | 0.00 | 0.00 | 14 | 1010.5 |
| 20260903180737 | 90 | 150 | 8.0 | 19.0 | 0.00 | 0.00 | 0.00 | 14 | 1010.5 |
| 20260903180414 | 90 | 153 | 9.0 | 19.0 | 0.00 | 0.00 | 0.00 | 14 | 1010.6 |
| 20260903175754 | 90 | 190 | 8.0 | 19.0 | 0.00 | 0.00 | 0.00 | 14 | 1010.6 |
| 20260903175432 | 90 | 195 | 8.0 | 17.0 | 0.00 | 0.00 | 0.00 | 15 | 1010.6 |
| 20260903175107 | 89 | 176 | 8.0 | 17.0 | 0.00 | 0.00 | 0.00 | 15 | 1010.6 |
| 20260903174741 | 89 | 162 | 8.0 | 17.0 | 0.00 | 0.00 | 0.00 | 15 | 1010.6 |
| 20260903174419 | 89 | 144 | 8.0 | 17.0 | 0.00 | 0.00 | 0.00 | 15 | 1010.6 |
| 20260903174105 | 89 | 143 | 8.0 | 17.0 | 0.00 | 0.00 | 0.00 | 16 | 1010.6 |
| 20260903173739 | 88 | 165 | 8.0 | 17.0 | 0.00 | 0.00 | 0.00 | 15 | 1010.6 |
| 20260903173118 | 88 | 136 | 9.0 | 17.0 | 0.00 | 0.00 | 0.00 | 16 | 1010.7 |
| 20260903172758 | 88 | 177 | 9.0 | 18.0 | 0.00 | 0.00 | 0.00 | 15 | 1010.9 |
| 20260903172437 | 87 | 127 | 8.0 | 18.0 | 0.00 | 0.00 | 0.00 | 16 | 1010.8 |
| 20260903172117 | 87 | 141 | 9.0 | 18.0 | 0.00 | 0.00 | 0.00 | 16 | 1010.7 |
| 20260903171802 | 87 | 0 | 9.0 | 22.0 | 0.00 | 0.00 | 0.00 | 17 | 1010.7 |
| 20260903171437 | 87 | 132 | 10.0 | 22.0 | 0.00 | 0.00 | 0.00 | 17 | 1010.9 |
| 20260903171117 | 87 | 145 | 10.0 | 22.0 | 0.00 | 0.00 | 0.00 | 17 | 1010.7 |
| 20260903170458 | 86 | 157 | 10.0 | 22.0 | 0.00 | 0.00 | 0.00 | 18 | 1010.9 |
| 20260903165844 | 86 | 138 | 10.0 | 19.0 | 0.00 | 0.00 | 0.00 | 18 | 1010.9 |
| 20260903165223 | 85 | 142 | 9.0 | 19.0 | 0.00 | 0.00 | 0.00 | 19 | 1010.8 |
| 20260903164859 | 85 | 152 | 11.0 | 23.0 | 0.00 | 0.00 | 0.00 | 20 | 1010.9 |
| 20260903164238 | 84 | 159 | 12.0 | 23.0 | 0.00 | 0.00 | 0.00 | 19 | 1010.7 |
| 20260903163613 | 84 | 146 | 11.0 | 23.0 | 0.00 | 0.00 | 0.00 | 18 | 1010.7 |
| 20260903163251 | 83 | 174 | 13.0 | 23.0 | 0.00 | 0.00 | 0.00 | 20 | 1010.6 |
| 20260903162928 | 83 | 161 | 13.0 | 23.0 | 0.00 | 0.00 | 0.00 | 19 | 1010.7 |
| 20260903162314 | 83 | 137 | 11.0 | 23.0 | 0.00 | 0.00 | 0.00 | 19 | 1010.7 |
| 20260903161951 | 83 | 168 | 10.0 | 21.0 | 0.00 | 0.00 | 0.00 | 19 | 1010.7 |
| 20260903161625 | 83 | 147 | 10.0 | 25.0 | 0.00 | 0.00 | 0.00 | 19 | 1010.8 |
| 20260903161300 | 82 | 155 | 11.0 | 25.0 | 0.00 | 0.00 | 0.00 | 20 | 1010.8 |
| 20260903160942 | 82 | 146 | 12.0 | 25.0 | 0.00 | 0.00 | 0.00 | 20 | 1010.7 |
| 20260903160618 | 82 | 157 | 13.0 | 25.0 | 0.00 | 0.00 | 0.00 | 19 | 1010.6 |
| 20260903160301 | 81 | 164 | 12.0 | 25.0 | 0.00 | 0.00 | 0.00 | 20 | 1010.7 |
| 20260903155940 | 81 | 142 | 12.0 | 25.0 | 0.00 | 0.00 | 0.00 | 20 | 1010.8 |
| 20260903155619 | 81 | 159 | 10.0 | 21.0 | 0.00 | 0.00 | 0.00 | 20 | 1010.8 |
| 20260903155300 | 81 | 148 | 9.0 | 21.0 | 0.00 | 0.00 | 0.00 | 20 | 1010.7 |
| 20260903154934 | 81 | 163 | 9.0 | 24.0 | 0.00 | 0.00 | 0.00 | 20 | 1010.7 |
| 20260903154318 | 80 | 180 | 11.0 | 24.0 | 0.00 | 0.00 | 0.00 | 21 | 1010.7 |
| 20260903153357 | 80 | 155 | 12.0 | 24.0 | 0.00 | 0.00 | 0.00 | 21 | 1010.6 |
| 20260903153035 | 80 | 169 | 12.0 | 23.0 | 0.00 | 0.00 | 0.00 | 21 | 1010.5 |
| 20260903152716 | 80 | 168 | 11.0 | 23.0 | 0.00 | 0.00 | 0.00 | 21 | 1010.7 |
| 20260903152401 | 80 | 162 | 11.0 | 23.0 | 0.00 | 0.00 | 0.00 | 21 | 1010.6 |
| 20260903152037 | 80 | 150 | 10.0 | 22.0 | 0.00 | 0.00 | 0.00 | 21 | 1010.6 |
| 20260903151721 | 80 | 124 | 10.0 | 22.0 | 0.00 | 0.00 | 0.00 | 22 | 1010.5 |
| 20260903151401 | 79 | 154 | 10.0 | 22.0 | 0.00 | 0.00 | 0.00 | 22 | 1010.7 |
| 20260903151040 | 79 | 173 | 9.0 | 22.0 | 0.00 | 0.00 | 0.00 | 22 | 1010.7 |
| 20260903150715 | 79 | 149 | 8.0 | 18.0 | 0.00 | 0.00 | 0.00 | 22 | 1010.6 |
| 20260903150359 | 79 | 178 | 8.0 | 16.0 | 0.00 | 0.00 | 0.00 | 22 | 1010.6 |
| 20260903150040 | 78 | 148 | 7.0 | 16.0 | 0.00 | 0.00 | 0.00 | 22 | 1010.5 |
| 20260903145718 | 78 | 146 | 7.0 | 16.0 | 0.00 | 0.00 | 0.00 | 23 | 1010.6 |
| 20260903145357 | 78 | 171 | 7.0 | 16.0 | 0.00 | 0.00 | 0.00 | 23 | 1010.6 |
| 20260903145031 | 77 | 187 | 7.0 | 16.0 | 0.00 | 0.00 | 0.00 | 23 | 1010.5 |
| 20260903144705 | 77 | 169 | 6.0 | 16.0 | 0.00 | 0.00 | 0.00 | 23 | 1010.5 |
| 20260903144348 | 77 | 170 | 7.0 | 14.0 | 0.00 | 0.00 | 0.00 | 24 | 1010.6 |
| 20260903144025 | 76 | 214 | 7.0 | 21.0 | 0.00 | 0.00 | 0.00 | 24 | 1010.5 |
| 20260903143708 | 76 | 199 | 8.0 | 21.0 | 0.00 | 0.00 | 0.00 | 24 | 1010.5 |
| 20260903143347 | 75 | 156 | 7.0 | 21.0 | 0.00 | 0.00 | 0.00 | 25 | 1010.5 |
| 20260903143033 | 75 | 144 | 8.0 | 21.0 | 0.00 | 0.00 | 0.00 | 25 | 1010.5 |
| 20260903141812 | 74 | 161 | 6.0 | 14.0 | 0.00 | 0.00 | 0.00 | 25 | 1010.4 |
| 20260903141446 | 74 | 178 | 6.0 | 14.0 | 0.00 | 0.00 | 0.00 | 26 | 1010.4 |
| 20260903141124 | 74 | 180 | 6.0 | 14.0 | 0.00 | 0.00 | 0.00 | 26 | 1010.3 |
| 20260903140803 | 74 | 155 | 7.0 | 14.0 | 0.00 | 0.00 | 0.00 | 26 | 1010.3 |
| 20260903140446 | 73 | 196 | 7.0 | 14.0 | 0.00 | 0.00 | 0.00 | 26 | 1010.3 |
| 20260903140123 | 73 | 194 | 7.0 | 14.0 | 0.00 | 0.00 | 0.00 | 26 | 1010.4 |
| 20260903135804 | 73 | 166 | 6.0 | 14.0 | 0.00 | 0.00 | 0.00 | 26 | 1010.4 |
| 20260903135442 | 73 | 140 | 5.0 | 11.0 | 0.00 | 0.00 | 0.00 | 26 | 1010.4 |
| 20260903135119 | 73 | 156 | 4.0 | 10.0 | 0.00 | 0.00 | 0.00 | 26 | 1010.2 |
| 20260903134803 | 73 | 148 | 4.0 | 10.0 | 0.00 | 0.00 | 0.00 | 26 | 1010.2 |
| 20260903134146 | 73 | 202 | 3.0 | 6.0 | 0.00 | 0.00 | 0.00 | 25 | 1010.2 |
| 20260903133827 | 73 | 134 | 2.0 | 6.0 | 0.00 | 0.00 | 0.00 | 25 | 1010.1 |
| 20260903133512 | 74 | 184 | 1.0 | 6.0 | 0.00 | 0.00 | 0.00 | 25 | 1010.1 |
| 20260903133154 | 74 | 144 | 2.0 | 7.0 | 0.00 | 0.00 | 0.00 | 26 | 1010.0 |
| 20260903132228 | 74 | 160 | 4.0 | 11.0 | 0.00 | 0.00 | 0.00 | 25 | 1009.9 |
| 20260903131906 | 74 | 171 | 4.0 | 11.0 | 0.00 | 0.00 | 0.00 | 25 | 1009.9 |
| 20260903131248 | 74 | 202 | 5.0 | 11.0 | 0.00 | 0.00 | 0.00 | 24 | 1009.9 |
| 20260903130927 | 74 | 170 | 6.0 | 11.0 | 0.00 | 0.00 | 0.00 | 24 | 1009.9 |
| 20260903130609 | 74 | 157 | 5.0 | 11.0 | 0.00 | 0.00 | 0.00 | 24 | 1009.9 |
| 20260903130248 | 74 | 151 | 4.0 | 10.0 | 0.00 | 0.00 | 0.00 | 24 | 1010.0 |
| 20260903125628 | 74 | 136 | 3.0 | 7.0 | 0.00 | 0.00 | 0.00 | 24 | 1010.1 |
| 20260903125311 | 74 | 121 | 3.0 | 10.0 | 0.00 | 0.00 | 0.00 | 24 | 1010.1 |
| 20260903124953 | 74 | 109 | 4.0 | 10.0 | 0.00 | 0.00 | 0.00 | 25 | 1010.1 |
| 20260903124638 | 74 | 160 | 4.0 | 10.0 | 0.00 | 0.00 | 0.00 | 25 | 1010.1 |
| 20260903124324 | 74 | 159 | 4.0 | 10.0 | 0.00 | 0.00 | 0.00 | 25 | 1010.1 |
| 20260903123959 | 74 | 186 | 4.0 | 10.0 | 0.00 | 0.00 | 0.00 | 25 | 1010.0 |
| 20260903123641 | 75 | 175 | 4.0 | 10.0 | 0.00 | 0.00 | 0.00 | 25 | 1010.1 |
| 20260903123323 | 75 | 158 | 4.0 | 10.0 | 0.00 | 0.00 | 0.00 | 25 | 1010.1 |
| 20260903122957 | 75 | 219 | 5.0 | 10.0 | 0.00 | 0.00 | 0.00 | 25 | 1010.0 |
| 20260903122636 | 75 | 198 | 5.0 | 15.0 | 0.00 | 0.00 | 0.00 | 25 | 1010.0 |
| 20260903122313 | 75 | 169 | 5.0 | 15.0 | 0.00 | 0.00 | 0.00 | 25 | 1010.0 |
| 20260903121952 | 75 | 163 | 5.0 | 15.0 | 0.00 | 0.00 | 0.00 | 25 | 1009.9 |
| 20260903121634 | 75 | 159 | 6.0 | 15.0 | 0.00 | 0.00 | 0.00 | 24 | 1009.9 |
| 20260903121308 | 75 | 227 | 6.0 | 15.0 | 0.00 | 0.00 | 0.00 | 24 | 1009.7 |
| 20260903120943 | 75 | 168 | 6.0 | 15.0 | 0.00 | 0.00 | 0.00 | 24 | 1009.7 |
| 20260903120628 | 75 | 160 | 5.0 | 14.0 | 0.00 | 0.00 | 0.00 | 24 | 1009.8 |
| 20260903120308 | 75 | 146 | 5.0 | 11.0 | 0.00 | 0.00 | 0.00 | 24 | 1009.8 |
| 20260903115945 | 75 | 170 | 4.0 | 11.0 | 0.00 | 0.00 | 0.00 | 24 | 1009.8 |
| 20260903115622 | 75 | 221 | 5.0 | 11.0 | 0.00 | 0.00 | 0.00 | 24 | 1009.7 |
| 20260903115306 | 75 | 171 | 5.0 | 11.0 | 0.00 | 0.00 | 0.00 | 24 | 1009.8 |
| 20260903114950 | 75 | 167 | 5.0 | 11.0 | 0.00 | 0.00 | 0.00 | 23 | 1009.8 |
| 20260903114623 | 75 | 163 | 5.0 | 13.0 | 0.00 | 0.00 | 0.00 | 23 | 1009.8 |
| 20260903114258 | 75 | 148 | 6.0 | 13.0 | 0.00 | 0.00 | 0.00 | 23 | 1009.8 |
| 20260903113941 | 75 | 147 | 6.0 | 13.0 | 0.00 | 0.00 | 0.00 | 22 | 1009.8 |
| 20260903113620 | 75 | 162 | 7.0 | 13.0 | 0.00 | 0.00 | 0.00 | 22 | 1009.8 |
| 20260903112400 | 75 | 146 | 5.0 | 10.0 | 0.00 | 0.00 | 0.00 | 22 | 1009.8 |
| 20260903112033 | 75 | 144 | 5.0 | 10.0 | 0.00 | 0.00 | 0.00 | 22 | 1009.8 |
| 20260903111719 | 75 | 135 | 5.0 | 10.0 | 0.00 | 0.00 | 0.00 | 22 | 1009.8 |
| 20260903111354 | 75 | 141 | 4.0 | 8.0 | 0.00 | 0.00 | 0.00 | 22 | 1009.8 |
| 20260903111031 | 76 | 146 | 4.0 | 8.0 | 0.00 | 0.00 | 0.00 | 22 | 1009.8 |
| 20260903110710 | 76 | 136 | 5.0 | 8.0 | 0.00 | 0.00 | 0.00 | 21 | 1009.8 |
| 20260903110353 | 76 | 161 | 5.0 | 8.0 | 0.00 | 0.00 | 0.00 | 21 | 1009.9 |
| 20260903110030 | 76 | 136 | 5.0 | 8.0 | 0.00 | 0.00 | 0.00 | 22 | 1009.9 |
| 20260903105708 | 76 | 171 | 4.0 | 8.0 | 0.00 | 0.00 | 0.00 | 21 | 1009.9 |
| 20260903105049 | 76 | 164 | 3.0 | 8.0 | 0.00 | 0.00 | 0.00 | 20 | 1009.9 |
| 20260903104731 | 76 | 181 | 3.0 | 8.0 | 0.00 | 0.00 | 0.00 | 21 | 1009.9 |
| 20260903104113 | 76 | 219 | 5.0 | 11.0 | 0.00 | 0.00 | 0.00 | 21 | 1010.0 |
| 20260903103747 | 76 | 211 | 5.0 | 11.0 | 0.00 | 0.00 | 0.00 | 21 | 1010.0 |
| 20260903103423 | 76 | 194 | 6.0 | 16.0 | 0.00 | 0.00 | 0.00 | 21 | 1010.0 |
| 20260903102758 | 77 | 239 | 7.0 | 16.0 | 0.00 | 0.00 | 0.00 | 21 | 1010.0 |
| 20260903102435 | 77 | 288 | 7.0 | 19.0 | 0.00 | 0.00 | 0.00 | 21 | 1010.0 |
| 20260903102114 | 77 | 263 | 7.0 | 19.0 | 0.00 | 0.00 | 0.00 | 21 | 1009.8 |
| 20260903101747 | 77 | 247 | 7.0 | 19.0 | 0.00 | 0.00 | 0.00 | 21 | 1009.8 |
| 20260903101432 | 77 | 227 | 8.0 | 19.0 | 0.00 | 0.00 | 0.00 | 21 | 1009.8 |
| 20260903101113 | 77 | 236 | 7.0 | 19.0 | 0.00 | 0.00 | 0.00 | 22 | 1009.9 |
| 20260903100758 | 77 | 233 | 6.0 | 19.0 | 0.00 | 0.00 | 0.00 | 21 | 1009.9 |
| 20260903100440 | 77 | 248 | 6.0 | 17.0 | 0.00 | 0.00 | 0.00 | 21 | 1009.9 |
| 20260903100119 | 77 | 197 | 6.0 | 17.0 | 0.00 | 0.00 | 0.00 | 21 | 1010.1 |
| 20260903095758 | 77 | 227 | 8.0 | 17.0 | 0.00 | 0.00 | 0.00 | 21 | 1010.1 |
| 20260903095437 | 77 | 193 | 9.0 | 17.0 | 0.00 | 0.00 | 0.00 | 20 | 1010.1 |
| 20260903095117 | 77 | 244 | 9.0 | 17.0 | 0.00 | 0.00 | 0.00 | 20 | 1010.0 |
| 20260903094800 | 77 | 252 | 8.0 | 17.0 | 0.00 | 0.00 | 0.00 | 20 | 1010.1 |
| 20260903094445 | 78 | 229 | 7.0 | 16.0 | 0.00 | 0.00 | 0.00 | 21 | 1010.0 |
| 20260903094126 | 78 | 219 | 7.0 | 16.0 | 0.00 | 0.00 | 0.00 | 21 | 1010.0 |
| 20260903093800 | 78 | 212 | 7.0 | 16.0 | 0.00 | 0.00 | 0.00 | 21 | 1010.1 |
| 20260903093140 | 78 | 186 | 6.0 | 16.0 | 0.00 | 0.00 | 0.00 | 21 | 1010.2 |
| 20260903092814 | 78 | 190 | 6.0 | 15.0 | 0.00 | 0.00 | 0.00 | 21 | 1010.3 |
| 20260903092152 | 78 | 163 | 7.0 | 16.0 | 0.00 | 0.00 | 0.00 | 21 | 1010.2 |
| 20260903091829 | 78 | 190 | 6.0 | 16.0 | 0.00 | 0.00 | 0.00 | 21 | 1010.2 |
| 20260903091507 | 78 | 273 | 6.0 | 18.0 | 0.00 | 0.00 | 0.00 | 21 | 1010.2 |
| 20260903091150 | 78 | 248 | 5.0 | 18.0 | 0.00 | 0.00 | 0.00 | 21 | 1010.3 |
| 20260903090833 | 78 | 182 | 6.0 | 18.0 | 0.00 | 0.00 | 0.00 | 21 | 1010.2 |
| 20260903090509 | 78 | 169 | 7.0 | 18.0 | 0.00 | 0.00 | 0.00 | 21 | 1010.3 |
| 20260903090150 | 78 | 194 | 7.0 | 18.0 | 0.00 | 0.00 | 0.00 | 21 | 1010.3 |
| 20260903085827 | 78 | 178 | 7.0 | 18.0 | 0.00 | 0.00 | 0.00 | 20 | 1010.4 |
| 20260903085505 | 78 | 196 | 6.0 | 19.0 | 0.00 | 0.00 | 0.00 | 20 | 1010.3 |
| 20260903085148 | 78 | 212 | 7.0 | 19.0 | 0.00 | 0.00 | 0.00 | 20 | 1010.4 |
| 20260903084829 | 79 | 221 | 7.0 | 19.0 | 0.00 | 0.00 | 0.00 | 20 | 1010.4 |
| 20260903084505 | 79 | 194 | 7.0 | 22.0 | 0.00 | 0.00 | 0.00 | 20 | 1010.3 |
| 20260903084142 | 79 | 197 | 7.0 | 22.0 | 0.00 | 0.00 | 0.00 | 20 | 1010.3 |
| 20260903083819 | 79 | 204 | 8.0 | 22.0 | 0.00 | 0.00 | 0.00 | 20 | 1010.4 |
| 20260903083454 | 79 | 217 | 8.0 | 22.0 | 0.00 | 0.00 | 0.00 | 20 | 1010.3 |
| 20260903083128 | 79 | 237 | 8.0 | 22.0 | 0.00 | 0.00 | 0.00 | 19 | 1010.4 |
| 20260903082801 | 79 | 204 | 9.0 | 22.0 | 0.00 | 0.00 | 0.00 | 19 | 1010.3 |
| 20260903082441 | 79 | 207 | 8.0 | 20.0 | 0.00 | 0.00 | 0.00 | 19 | 1010.3 |
| 20260903081817 | 80 | 210 | 7.0 | 20.0 | 0.00 | 0.00 | 0.00 | 18 | 1010.3 |
| 20260903081500 | 80 | 212 | 6.0 | 18.0 | 0.00 | 0.00 | 0.00 | 18 | 1010.2 |
| 20260903080845 | 80 | 163 | 7.0 | 15.0 | 0.00 | 0.00 | 0.00 | 17 | 1010.2 |
| 20260903080521 | 80 | 198 | 7.0 | 15.0 | 0.00 | 0.00 | 0.00 | 17 | 1010.3 |
| 20260903080157 | 80 | 178 | 7.0 | 15.0 | 0.00 | 0.00 | 0.00 | 17 | 1010.3 |
| 20260903075837 | 80 | 197 | 7.0 | 15.0 | 0.00 | 0.00 | 0.00 | 17 | 1010.3 |
| 20260903075214 | 80 | 200 | 6.0 | 15.0 | 0.00 | 0.00 | 0.00 | 16 | 1010.3 |
| 20260903074857 | 80 | 142 | 5.0 | 12.0 | 0.00 | 0.00 | 0.00 | 16 | 1010.4 |
| 20260903073426 | 80 | 240 | 5.0 | 14.0 | 0.00 | 0.00 | 0.00 | 15 | 1010.4 |
| 20260903073101 | 80 | 165 | 6.0 | 14.0 | 0.00 | 0.00 | 0.00 | 15 | 1010.4 |
| 20260903072736 | 80 | 138 | 6.0 | 14.0 | 0.00 | 0.00 | 0.00 | 14 | 1010.3 |
| 20260903072418 | 80 | 162 | 6.0 | 14.0 | 0.00 | 0.00 | 0.00 | 14 | 1010.3 |
| 20260903072103 | 81 | 110 | 5.0 | 14.0 | 0.00 | 0.00 | 0.00 | 14 | 1010.3 |
| 20260903071740 | 81 | 180 | 5.0 | 14.0 | 0.00 | 0.00 | 0.00 | 13 | 1010.3 |
| 20260903071424 | 81 | 190 | 5.0 | 14.0 | 0.00 | 0.00 | 0.00 | 13 | 1010.4 |
| 20260903071058 | 81 | 149 | 5.0 | 14.0 | 0.00 | 0.00 | 0.00 | 13 | 1010.2 |
| 20260903070734 | 81 | 175 | 5.0 | 14.0 | 0.00 | 0.00 | 0.00 | 13 | 1010.3 |
| 20260903070407 | 81 | 161 | 5.0 | 13.0 | 0.00 | 0.00 | 0.00 | 13 | 1010.3 |
| 20260903070048 | 81 | 157 | 5.0 | 13.0 | 0.00 | 0.00 | 0.00 | 12 | 1010.2 |
| 20260903065734 | 81 | 155 | 5.0 | 13.0 | 0.00 | 0.00 | 0.00 | 12 | 1010.2 |
| 20260903065411 | 81 | 180 | 5.0 | 13.0 | 0.00 | 0.00 | 0.00 | 12 | 1010.1 |
| 20260903065049 | 81 | 189 | 6.0 | 13.0 | 0.00 | 0.00 | 0.00 | 12 | 1010.1 |
| 20260903064726 | 81 | 186 | 6.0 | 12.0 | 0.00 | 0.00 | 0.00 | 12 | 1010.1 |
| 20260903064411 | 81 | 116 | 5.0 | 12.0 | 0.00 | 0.00 | 0.00 | 12 | 1010.1 |
| 20260903064050 | 81 | 189 | 4.0 | 10.0 | 0.00 | 0.00 | 0.00 | 12 | 1010.1 |
| 20260903063725 | 81 | 177 | 4.0 | 17.0 | 0.00 | 0.00 | 0.00 | 12 | 1010.0 |
| 20260903062804 | 82 | 182 | 7.0 | 17.0 | 0.00 | 0.00 | 0.00 | 12 | 1010.0 |
| 20260903062144 | 82 | 157 | 7.0 | 17.0 | 0.00 | 0.00 | 0.00 | 12 | 1009.9 |
| 20260903061827 | 82 | 165 | 6.0 | 17.0 | 0.00 | 0.00 | 0.00 | 12 | 1009.9 |
| 20260903061501 | 82 | 153 | 5.0 | 14.0 | 0.00 | 0.00 | 0.00 | 12 | 1009.8 |
| 20260903061141 | 82 | 200 | 3.0 | 10.0 | 0.00 | 0.00 | 0.00 | 12 | 1009.7 |
| 20260903060817 | 82 | 175 | 3.0 | 7.0 | 0.00 | 0.00 | 0.00 | 11 | 1009.8 |
| 20260903060454 | 82 | 192 | 3.0 | 9.0 | 0.00 | 0.00 | 0.00 | 11 | 1009.7 |
| 20260903060137 | 82 | 186 | 3.0 | 9.0 | 0.00 | 0.00 | 0.00 | 11 | 1009.8 |
| 20260903055816 | 82 | 178 | 4.0 | 9.0 | 0.00 | 0.00 | 0.00 | 10 | 1009.7 |
| 20260903055458 | 82 | 197 | 4.0 | 9.0 | 0.00 | 0.00 | 0.00 | 10 | 1009.6 |
| 20260903055142 | 82 | 178 | 4.0 | 9.0 | 0.00 | 0.00 | 0.00 | 11 | 1009.7 |
| 20260903054520 | 83 | 187 | 5.0 | 9.0 | 0.00 | 0.00 | 0.00 | 10 | 1009.7 |
| 20260903053855 | 83 | 191 | 4.0 | 9.0 | 0.00 | 0.00 | 0.00 | 10 | 1009.7 |
| 20260903053540 | 83 | 200 | 4.0 | 9.0 | 0.00 | 0.00 | 0.00 | 10 | 1009.7 |
| 20260903053219 | 83 | 200 | 3.0 | 7.0 | 0.00 | 0.00 | 0.00 | 11 | 1009.6 |
| 20260903052904 | 83 | 197 | 3.0 | 7.0 | 0.00 | 0.00 | 0.00 | 10 | 1009.7 |